This demonstration page uses our WeatherBlox Daily Observations layout. Learn more.

Left ArrowRight Arrow

44.8408, -93.29828

Hourly Observations for September 6, 2021

Temp ( °F °C ) Dew Point ( °F °C ) Humidity (%) Winds ( mph kmh ) Pressure ( in mb ) Visibility ( mi km ) Precip ( " mm )
12:53 am 00:53 Mostly Clear 60 15.6 52 11.1 75 75 WNW 5 7 29.93 1014 10 16 0.00 0.00
1:53 am 01:53 Mostly Clear 60 15.6 51 10.6 72 72 WSW 3 6 29.93 1014 10 16 0.00 0.00
2:53 am 02:53 Clear 60 15.6 52 11.1 75 75 Calm 29.93 1014 10 16 0.00 0.00
3:53 am 03:53 Clear 59 15 53 11.7 81 81 Calm 29.93 1014 10 16 0.00 0.00
4:53 am 04:53 Clear 57 13.9 52 11.1 83 83 Calm 29.93 1014 10 16 0.00 0.00
5:53 am 05:53 Mostly Clear 57 13.9 53 11.7 87 87 Calm 29.93 1014 9 14 0.00 0.00
6:53 am 06:53 Partly Cloudy 56 13.3 53 11.7 90 90 SW 3 6 29.95 1014 8 13 0.00 0.00
7:53 am 07:53 Partly Cloudy 58 14.4 53 11.7 84 84 SW 3 6 29.96 1015 10 16 0.00 0.00
8:53 am 08:53 Partly Cloudy 62 16.7 54 12.2 75 75 SSW 3 6 29.96 1014 10 16 0.00 0.00
9:53 am 09:53 Sunny 67 19.4 52 11.1 59 59 SSW 7 11 29.95 1014 10 16 0.00 0.00
10:53 am 10:53 Partly Cloudy 71 21.7 54 12.2 55 55 VRB 7 11 29.94 1014 10 16 0.00 0.00
11:53 am 11:53 Mostly Sunny 75 23.9 52 11.1 45 45 SW 9 15 29.92 1013 10 16 0.00 0.00
12:53 pm 12:53 Mostly Sunny 76 24.4 53 11.7 45 45 S 9 15 29.90 1013 10 16 0.00 0.00
1:53 pm 13:53 Mostly Sunny 78 25.6 53 11.7 42 42 S 8 13 29.88 1012 10 16 0.00 0.00
2:53 pm 14:53 Mostly Sunny 79 26.1 53 11.7 41 41 SW 9 15 29.84 1011 10 16 0.00 0.00
3:53 pm 15:53 Mostly Sunny 81 27.2 53 11.7 38 38 S 12 19 29.82 1010 10 16 0.00 0.00
4:53 pm 16:53 Mostly Sunny 80 26.7 52 11.1 38 38 S 13 20 29.78 1009 10 16 0.00 0.00
5:53 pm 17:53 Mostly Sunny 79 26.1 53 11.7 41 41 SSE 12 19 29.77 1008 10 16 0.00 0.00
6:53 pm 18:53 Mostly Sunny 77 25 53 11.7 43 43 SSE 10 17 29.76 1008 10 16 0.00 0.00
7:53 pm 19:53 Mostly Clear 73 22.8 54 12.2 51 51 SSE 8 13 29.75 1008 10 16 0.00 0.00
8:53 pm 20:53 Mostly Clear 72 22.2 54 12.2 53 53 SSE 9 15 29.75 1007 10 16 0.00 0.00
9:53 pm 21:53 Mostly Clear 71 21.7 55 12.8 57 57 SSE 8 13 29.73 1007 10 16 0.00 0.00
10:53 pm 22:53 Mostly Clear 72 22.2 56 13.3 57 57 SSE 15 24 29.70 1006 10 16 0.00 0.00
11:53 pm 23:53 Partly Cloudy 71 21.7 57 13.9 61 61 S 12 19 29.67 1005 10 16 0.00 0.00

Powered by AerisWeather